Tracking 20242 objects as of 24-Jan-2020
HD Live streaming from Space Station
objects crossing your sky now

TANSUO 1

Track TANSUO 1 now!
10-day predictions
TANSUO 1 is classified as:


NORAD ID: 28220
Int'l Code: 2004-012A
Perigee: 570.3 km
Apogee: 578.0 km
Inclination: 97.8 °
Period: 96.0 minutes
Semi major axis: 6945 km
RCS: 1.6951 m2 (large)
Launch date: April 18, 2004
Source: People's Republic of China (PRC)
Launch site: Xichang Space Center, China (XSC)
aabbcc
Your satellite tracking list
Your tracking list is empty




NASA's NSSDC Master Catalog

Two Line Element Set (TLE):
1 28220U 04012A   20023.46615617  .00000634  00000-0  55967-4 0  9993
2 28220  97.8338 351.5009 0005536  25.0888 335.0603 14.99977041858841
Source of the keplerian elements: AFSPC